Temperature
18 18 17 17 16 16 15 15 15 15 14 14 14 14 14 14 14 14 14 13 13 13 13 13 13 13 13 13 14 14 14 14 13 13 13 12 12 12 13 13 13 13 13
20 18 17 16 16 16 15 15 15 14 14 14 14 14 13 14 13 13 13 13 12 12 12 12 12 13 13 13 13 14 13 13 12 12 12 12 12 12 12 12 12 12 12
19 18 17 16 16 16 15 15 14 14 14 14 13 13 13 13 13 13 12 12 12 12 12 12 12 13 13 13 13 13 13 12 11 11 11 11 11 11 11 11 11 11 11
18 18 17 16 16 15 15 15 14 14 14 13 13 13 13 12 12 12 12 12 12 12 12 12 12 12 12 13 13 13 12 12 11 10 10 10 10 10 10 10 10 10 11
17 17 17 16 15 15 15 14 14 14 13 13 13 12 12 12 12 12 12 12 12 12 12 12 12 12 12 13 13 12 12 11 10 10 10 10 10 10 10 10 10 10 10
16 16 16 16 15 15 14 14 14 13 13 13 12 12 12 12 12 12 12 12 12 12 12 12 12 12 12 12 12 12 11 11 10 10 10 10 10 10 9 9 10 10 10
16 16 16 15 15 14 14 14 14 13 13 12 12 12 12 12 12 12 12 12 12 11 11 11 12 12 12 12 12 12 11 10 10 10 10 10 10 9 9 9 9 9 9
16 15 15 15 14 14 14 14 13 13 13 12 12 12 11 11 11 12 11 11 11 11 11 11 11 11 12 12 12 12 11 10 10 9 10 10 10 9 9 9 9 9 9
15 15 15 14 14 14 13 13 13 13 13 12 12 12 12 11 11 11 11 11 11 11 11 11 11 11 12 12 12 11 11 10 10 9 10 10 9 9 9 9 9 9 9
15 15 15 14 14 14 13 13 13 13 12 12 12 12 12 11 11 11 11 11 11 11 11 11 11 11 11 11 11 11 10 10 9 9 10 10 9 9 9 9 9 9 9
15 14 14 14 14 13 13 13 13 12 12 12 12 12 11 11 11 11 11 11 11 11 11 11 11 11 11 11 10 10 10 10 9 10 10 10 9 9 9 9 9 9 8
15 14 14 14 14 13 13 13 13 12 12 12 12 12 11 11 10 10 11 11 11 11 11 11 11 11 10 10 10 10 10 9 9 10 10 10 9 9 9 8 8 8 8
15 15 14 14 14 13 13 13 13 12 12 12 12 11 11 10 10 10 11 11 11 11 11 11 10 10 10 10 10 10 10 10 9 9 10 10 9 9 8 8 8 8 8
15 15 14 14 14 13 13 13 13 12 12 12 11 11 11 10 10 10 11 11 11 11 10 10 10 10 10 10 10 10 10 9 9 10 10 10 9 9 9 8 8 8 8
16 15 15 14 14 14 13 13 13 12 12 12 12 11 11 11 10 10 10 10 10 10 10 10 10 10 10 10 10 10 9 9 9 9 10 10 9 9 9 9 8 8 8
16 16 15 15 14 14 13 13 13 13 12 12 12 11 11 11 11 11 10 10 10 10 10 10 10 10 10 10 10 9 9 9 9 9 9 10 9 9 9 9 9 9 8
17 16 16 15 15 14 14 13 13 13 12 12 12 12 11 11 11 11 10 10 10 10 10 10 10 10 10 10 10 10 9 10 9 9 9 9 9 9 9 9 9 9 9
17 16 16 15 15 14 14 13 13 13 13 12 12 12 12 11 11 11 11 11 10 10 10 10 10 10 10 10 10 10 10 10 9 9 9 9 9 9 9 9 9 9 9
18 17 16 16 15 15 14 13 13 13 12 12 12 12 12 11 11 11 11 11 10 10 10 10 10 10 10 10 10 10 10 10 10 9 9 9 9 9 9 9 9 9 9
18 17 17 16 15 15 14 13 13 12 12 12 12 12 12 12 11 11 11 11 10 10 10 10 10 10 10 10 9 9 9 10 10 10 10 10 9 9 9 9 9 9 9
18 17 16 16 15 14 14 13 13 13 13 12 12 12 12 12 11 11 11 11 10 10 10 10 10 10 10 9 9 9 9 9 9 10 10 9 9 9 9 9 9 9 9
18 18 17 16 16 15 15 15 14 14 13 13 12 12 12 12 11 11 11 11 11 10 10 10 10 10 10 9 9 9 9 9 9 9 9 9 9 9 9 9 9 9 9
19 18 17 16 16 16 15 14 13 12 12 12 12 12 12 12 11 11 11 11 11 10 10 10 10 10 10 9 9 9 9 9 9 9 9 9 9 9 9 9 9 8 8
19 19 18 17 16 16 15 14 14 13 13 14 14 13 12 12 11 11 11 11 11 10 10 10 10 10 10 10 9 9 9 9 9 9 9 9 9 9 9 9 8 8 8
19 19 18 17 16 16 15 15 14 14 14 14 13 13 12 12 11 11 11 11 11 11 10 10 10 10 10 9 9 9 9 9 9 8 8 9 9 9 8 8 8 8 8
19 19 18 17 16 16 15 15 14 14 14 13 13 13 12 12 12 11 11 11 11 11 10 10 10 10 10 9 9 9 9 9 9 9 8 8 8 8 8 8 8 8 7
Wind_Speed
13 18 24 21 20 19 18 18 18 17 17 16 16 16 16 17 17 17 16 16 17 17 17 17 18 18 18 18 18 18 18 18 18 18 19 19 19 19 19 19 18 17 18
17 22 24 22 21 20 19 18 18 17 17 16 16 16 16 16 16 16 16 16 16 16 16 16 17 17 17 17 17 17 16 15 15 15 17 18 18 18 18 18 17 16 17
20 23 23 23 22 20 19 18 18 17 17 16 16 16 16 15 15 16 15 15 15 16 16 16 16 16 16 16 16 15 14 13 12 13 15 15 16 17 16 16 16 16 16
20 22 22 24 23 21 20 19 18 17 17 16 16 15 15 15 15 15 16 15 15 15 16 16 16 16 15 15 14 14 12 11 11 14 15 15 14 15 15 15 15 15 15
18 21 23 24 23 22 20 19 18 18 17 16 16 15 15 15 15 15 15 15 15 15 15 15 15 15 14 14 13 12 10 10 11 14 15 15 13 13 14 14 14 14 14
17 20 23 24 23 22 20 19 18 18 17 16 16 15 15 15 15 15 14 14 14 14 14 14 13 13 13 12 12 10 9 10 10 14 15 15 13 13 13 13 13 13 13
17 19 23 23 23 22 21 20 19 18 17 16 15 15 15 15 14 14 14 13 13 13 13 12 12 12 11 11 10 8 8 10 9 12 14 13 12 12 13 13 13 13 14
17 18 22 23 23 22 21 20 19 18 17 16 16 15 15 14 14 13 13 12 12 12 11 11 11 10 10 9 8 7 8 9 8 11 13 12 11 11 12 12 12 13 13
16 17 17 19 21 21 21 20 19 18 17 16 16 15 15 14 13 13 12 12 11 11 10 10 9 9 8 8 6 4 6 9 6 9 11 11 10 10 11 12 12 12 12
15 16 15 17 19 18 19 19 19 18 17 16 16 16 15 14 13 12 12 11 10 10 9 8 8 7 7 5 3 3 6 7 5 11 12 10 9 10 10 11 11 11 12
15 15 15 15 16 18 18 18 19 18 17 17 16 17 15 13 13 12 12 11 10 9 8 7 6 5 5 4 2 3 6 3 8 11 11 9 8 9 9 10 11 11 11
16 16 15 15 14 16 16 17 16 15 16 15 15 16 14 13 13 12 14 12 10 8 7 6 5 4 5 5 4 3 4 2 6 10 10 9 7 8 9 9 10 10 10
16 15 15 14 14 13 11 14 12 13 14 14 16 16 13 12 12 13 12 10 9 8 7 7 6 6 5 4 2 1 3 5 6 9 9 8 7 7 8 8 8 9 10
15 15 14 14 13 12 11 10 10 10 10 10 14 16 12 8 8 10 9 11 10 9 8 7 6 5 3 3 2 1 2 3 6 9 9 7 6 6 6 7 7 8 9
15 15 15 14 14 12 10 9 9 8 9 12 14 15 13 7 5 7 8 10 10 9 7 5 4 3 2 2 1 1 1 3 5 7 8 7 5 5 5 6 6 6 7
17 16 15 15 14 12 10 8 8 9 11 12 12 13 14 11 7 6 6 7 7 8 7 6 4 3 2 2 1 1 2 2 4 6 8 7 5 4 3 4 5 5 6
18 17 15 15 15 14 12 10 8 9 11 9 11 14 14 13 10 7 5 5 6 8 7 4 3 2 2 2 1 1 2 2 2 3 5 6 6 4 2 2 3 4 5
17 18 17 15 15 14 12 10 8 9 9 9 12 13 14 14 13 9 5 5 8 8 6 3 2 2 2 1 1 1 1 0 0 2 3 4 5 5 4 2 1 3 4
17 18 18 16 16 15 13 10 8 8 8 9 12 12 14 15 15 10 6 6 9 6 4 3 2 2 2 1 1 1 1 1 1 1 2 3 3 4 5 4 2 2 3
16 17 18 17 15 14 12 9 7 8 8 8 9 11 14 14 15 11 7 8 8 5 4 4 4 3 2 2 1 1 2 2 2 2 2 3 4 4 4 5 5 4 3
16 17 18 18 16 14 12 12 11 10 9 8 7 11 14 14 15 11 7 7 6 6 6 6 4 4 2 2 1 1 3 3 3 3 3 3 4 5 5 5 5 5 4
17 18 18 19 18 16 13 12 10 9 8 7 7 9 13 14 15 12 9 7 7 6 7 7 5 4 3 3 3 1 1 2 3 4 3 3 4 5 5 7 6 6 5
17 19 18 19 18 18 14 11 9 8 7 7 9 9 10 13 14 13 11 8 7 7 7 7 6 6 5 4 4 4 3 3 2 2 4 4 4 4 4 6 7 7 7
17 17 17 18 18 18 17 15 15 13 12 11 10 9 9 12 13 14 13 11 9 7 8 7 7 5 6 4 3 3 3 3 2 2 3 3 4 5 5 4 6 8 8
16 16 17 17 17 17 18 17 17 13 11 8 9 11 11 10 12 13 13 11 9 8 9 9 8 7 6 5 4 3 3 2 3 3 3 3 3 4 4 4 5 6 8
14 15 16 16 16 17 18 18 18 16 14 12 12 13 12 9 10 12 12 11 10 9 9 9 9 9 7 7 5 4 4 3 4 4 4 4 4 4 4 4 4 5 7
Wind_Direction
138 148 152 147 143 139 135 130 125 119 114 110 107 105 102 100 97 95 93 91 89 86 85 83 82 80 78 76 75 74 73 73 72 71 67 63 60 58 55 53 54 49 48
139 147 151 148 144 141 138 133 127 122 118 114 111 109 106 103 100 98 96 93 91 89 87 85 83 81 79 77 76 75 74 74 73 73 72 66 60 58 56 54 53 50 48
138 145 150 149 146 142 139 135 130 127 122 118 114 112 110 106 103 99 97 94 92 91 89 87 84 82 80 78 77 74 72 69 62 63 68 67 59 56 55 53 51 49 47
139 145 149 149 146 144 140 137 134 130 126 122 118 115 112 108 105 102 100 97 94 92 90 88 86 84 82 79 76 74 70 58 46 60 64 60 54 53 51 49 47 46 44
139 145 147 149 147 145 142 139 136 133 130 127 123 118 115 112 107 104 101 99 98 96 93 91 88 86 83 79 76 72 62 44 39 64 67 62 49 49 49 46 42 40 38
140 141 147 150 149 147 144 142 139 136 133 131 128 124 120 116 111 106 104 102 100 99 96 92 89 86 83 79 74 65 47 29 48 63 65 58 44 43 45 43 41 38 37
140 140 148 152 150 148 146 144 142 139 135 133 132 129 124 119 114 110 109 107 105 102 99 96 93 89 84 78 72 56 29 10 68 73 70 58 42 40 41 38 36 36 37
140 141 149 153 152 150 149 147 145 142 140 137 134 131 127 122 120 118 115 112 110 106 102 99 96 91 85 78 68 45 15 10 37 71 72 56 41 38 37 35 34 36 37
140 141 148 152 152 152 151 150 148 147 144 142 139 134 130 128 128 125 122 118 114 110 106 102 98 94 88 81 68 29 356 349 18 63 68 53 40 38 38 36 36 37 36
142 146 151 153 154 154 153 152 151 150 148 145 141 136 134 135 134 131 128 125 121 118 114 110 107 103 100 97 81 351 328 328 45 71 66 51 41 37 36 36 36 38 38
150 152 157 158 158 157 156 156 152 152 151 146 142 140 140 143 141 141 136 134 132 128 124 123 126 128 134 149 182 291 310 330 77 81 68 52 43 35 35 38 38 39 39
161 161 163 162 160 158 159 156 157 157 156 155 152 153 159 160 156 147 142 144 144 143 142 148 165 179 184 186 212 257 301 1 83 91 78 60 47 39 39 41 39 38 38
165 165 166 163 161 159 155 158 162 161 166 169 164 168 172 160 140 134 145 149 154 161 173 177 195 216 202 161 183 206 17 25 68 89 89 69 52 43 39 40 39 38 34
168 169 167 163 162 160 157 160 161 161 169 169 169 173 170 154 150 153 157 165 171 183 182 183 207 209 176 148 158 99 76 52 80 97 98 82 62 47 39 38 38 36 32
172 171 170 167 165 163 159 163 163 162 166 167 168 176 167 154 157 157 163 167 176 179 172 194 208 173 157 134 102 68 86 91 96 107 112 102 82 62 44 37 30 28 26
176 174 173 170 166 163 164 165 164 164 165 164 165 174 169 164 162 158 160 164 172 169 176 192 189 153 157 126 100 46 48 80 102 121 128 125 113 92 57 38 26 22 17
177 174 175 174 169 167 168 170 167 164 164 161 165 176 173 168 165 163 158 161 167 171 177 179 173 142 130 124 148 106 57 39 98 128 139 141 138 134 113 52 20 10 6
173 174 176 177 174 172 172 173 169 166 164 162 167 176 178 173 170 167 161 166 170 171 168 157 155 143 145 162 162 143 115 91 108 141 136 147 150 151 153 151 8 349 349
175 174 175 176 177 176 173 171 169 165 165 165 168 174 180 177 173 169 167 170 171 166 162 165 161 160 168 169 158 175 192 188 183 168 157 155 157 159 165 178 203 267 316
176 174 174 175 178 174 172 171 169 172 173 172 173 177 179 179 175 173 170 174 170 161 168 167 170 174 169 167 162 220 230 208 195 186 183 167 176 186 192 200 206 223 250
176 176 176 177 180 176 178 179 181 184 181 179 178 180 180 180 178 176 174 176 171 173 177 175 170 175 183 156 126 280 273 233 208 202 185 179 186 195 207 213 222 224 236
180 179 178 180 181 181 183 182 182 178 179 179 178 185 186 184 182 183 178 179 177 177 181 184 173 169 184 168 157 165 283 303 271 217 197 204 203 196 207 216 225 230 235
183 182 183 182 182 182 177 172 171 169 173 181 188 192 191 190 187 184 184 181 182 180 186 189 180 174 182 194 182 168 182 229 264 258 224 212 211 210 215 218 219 228 232
185 182 181 181 181 181 177 178 179 184 189 193 188 188 188 192 190 188 187 187 186 184 185 189 186 182 173 190 205 208 200 184 171 268 277 241 224 222 226 221 218 225 229
179 178 180 180 181 180 180 183 185 191 192 183 181 185 191 194 195 193 191 191 189 188 187 188 188 188 186 185 187 189 219 237 213 197 253 265 261 244 230 223 219 220 223
175 174 177 179 182 181 183 186 189 191 187 183 186 189 192 194 196 196 193 192 191 190 191 193 192 190 192 192 193 185 179 186 206 204 229 246 253 253 238 228 220 219 223
Height
1497 1500 1503 1507 1510 1513 1516 1518 1521 1523 1524 1526 1528 1529 1530 1532 1533 1534 1535 1536 1537 1537 1538 1539 1539 1539 1539 1539 1540 1540 1541 1541 1541 1541 1541 1541 1541 1540 1540 1539 1539 1539 1538
1494 1499 1503 1506 1510 1513 1515 1518 1521 1523 1525 1527 1528 1529 1531 1532 1533 1534 1535 1536 1537 1538 1539 1539 1540 1540 1540 1540 1541 1541 1542 1542 1542 1542 1542 1542 1541 1541 1540 1540 1540 1539 1539
1494 1498 1502 1506 1509 1512 1515 1518 1521 1523 1525 1527 1528 1530 1531 1532 1534 1535 1536 1537 1538 1539 1539 1540 1540 1541 1541 1541 1542 1542 1543 1543 1544 1544 1543 1543 1543 1542 1542 1541 1541 1540 1540
1494 1498 1501 1505 1509 1512 1515 1518 1521 1523 1525 1527 1529 1530 1532 1533 1534 1535 1536 1537 1538 1539 1540 1541 1541 1541 1542 1542 1543 1544 1544 1545 1545 1545 1544 1544 1544 1544 1543 1542 1542 1541 1541
1494 1498 1501 1505 1509 1512 1515 1518 1521 1523 1525 1527 1529 1531 1532 1533 1535 1536 1537 1538 1539 1540 1541 1541 1542 1542 1543 1544 1544 1545 1545 1546 1546 1546 1546 1545 1545 1545 1544 1543 1543 1542 1542
1494 1498 1502 1505 1509 1512 1515 1518 1521 1523 1526 1527 1529 1531 1532 1534 1535 1536 1537 1538 1539 1540 1541 1542 1543 1543 1544 1545 1545 1546 1546 1547 1547 1547 1547 1546 1546 1546 1545 1544 1544 1543 1542
1494 1498 1502 1505 1509 1512 1515 1518 1521 1523 1526 1528 1529 1531 1532 1534 1535 1536 1538 1539 1540 1541 1542 1543 1544 1544 1545 1545 1546 1547 1547 1548 1548 1548 1547 1547 1547 1547 1546 1545 1545 1544 1543
1494 1497 1502 1506 1509 1512 1515 1518 1521 1523 1526 1528 1529 1531 1533 1534 1535 1537 1538 1539 1541 1542 1543 1544 1544 1545 1546 1546 1547 1548 1548 1548 1549 1549 1548 1548 1548 1547 1547 1546 1545 1544 1543
1495 1497 1501 1505 1509 1512 1515 1518 1520 1523 1525 1528 1529 1531 1533 1534 1536 1537 1539 1540 1541 1542 1543 1544 1545 1546 1546 1547 1548 1549 1549 1549 1550 1549 1549 1548 1548 1548 1547 1546 1545 1545 1544
1495 1497 1501 1504 1508 1511 1514 1517 1520 1523 1525 1527 1529 1531 1533 1534 1536 1538 1539 1540 1541 1543 1544 1545 1545 1546 1547 1548 1549 1549 1550 1550 1550 1550 1549 1549 1548 1548 1547 1546 1545 1545 1544
1495 1497 1500 1503 1507 1510 1513 1516 1519 1522 1524 1527 1529 1531 1532 1534 1536 1538 1539 1541 1542 1543 1544 1545 1546 1547 1548 1549 1549 1550 1550 1550 1550 1550 1549 1549 1548 1548 1547 1546 1545 1545 1544
1492 1496 1499 1502 1505 1509 1512 1515 1518 1521 1523 1526 1528 1530 1532 1534 1536 1538 1539 1541 1542 1543 1544 1546 1547 1547 1548 1549 1550 1550 1550 1551 1551 1549 1549 1549 1549 1548 1547 1546 1545 1545 1543
1489 1494 1497 1501 1504 1507 1510 1513 1516 1519 1522 1525 1527 1529 1532 1534 1536 1537 1539 1541 1542 1543 1545 1546 1547 1548 1549 1549 1550 1550 1551 1551 1551 1550 1549 1549 1548 1548 1547 1546 1545 1544 1543
1488 1491 1495 1499 1502 1505 1508 1511 1515 1517 1520 1523 1526 1529 1531 1534 1535 1537 1538 1540 1542 1543 1544 1546 1547 1548 1549 1550 1550 1550 1551 1551 1550 1549 1549 1549 1548 1547 1547 1546 1545 1544 1543
1485 1489 1493 1497 1500 1503 1507 1510 1513 1516 1519 1522 1525 1528 1530 1532 1534 1536 1538 1539 1541 1543 1544 1546 1547 1548 1549 1550 1550 1550 1550 1550 1550 1549 1549 1548 1548 1547 1546 1546 1545 1544 1543
1481 1485 1490 1494 1497 1501 1504 1508 1511 1514 1517 1520 1523 1526 1529 1531 1533 1535 1537 1539 1540 1542 1543 1545 1546 1548 1548 1549 1549 1550 1550 1550 1549 1549 1548 1547 1547 1546 1546 1545 1544 1543 1542
1477 1481 1486 1490 1494 1498 1501 1505 1509 1512 1515 1518 1521 1524 1527 1529 1531 1533 1535 1537 1539 1541 1543 1544 1546 1547 1548 1548 1548 1549 1549 1549 1549 1548 1547 1547 1546 1545 1545 1544 1543 1542 1541
1474 1478 1482 1487 1491 1494 1498 1502 1506 1509 1512 1515 1518 1521 1524 1527 1529 1531 1533 1535 1537 1539 1541 1542 1544 1545 1546 1547 1547 1547 1548 1548 1548 1547 1547 1546 1545 1544 1544 1543 1542 1541 1540
1469 1473 1477 1482 1486 1490 1495 1499 1503 1506 1509 1513 1515 1518 1521 1524 1526 1529 1531 1533 1535 1537 1539 1541 1542 1543 1544 1545 1546 1546 1546 1546 1546 1546 1545 1545 1544 1543 1542 1542 1541 1540 1539
1465 1469 1473 1477 1482 1487 1491 1496 1500 1503 1506 1509 1512 1515 1518 1521 1523 1526 1528 1530 1533 1535 1536 1538 1540 1541 1543 1544 1544 1544 1545 1545 1544 1544 1543 1543 1542 1542 1541 1540 1539 1538 1537
1460 1464 1468 1472 1477 1482 1485 1489 1493 1497 1501 1505 1508 1511 1514 1517 1520 1522 1525 1527 1530 1532 1534 1536 1537 1539 1540 1541 1542 1542 1543 1543 1542 1542 1541 1541 1540 1540 1539 1538 1537 1536 1535
1453 1457 1462 1466 1470 1475 1478 1483 1487 1492 1496 1500 1504 1507 1510 1513 1516 1518 1521 1523 1526 1528 1531 1533 1534 1536 1538 1539 1540 1540 1540 1541 1540 1540 1539 1539 1538 1538 1537 1536 1535 1534 1533
1446 1450 1455 1459 1464 1469 1473 1479 1484 1489 1493 1496 1498 1502 1505 1508 1511 1514 1517 1520 1522 1525 1527 1529 1531 1533 1534 1536 1537 1539 1538 1537 1537 1537 1537 1537 1536 1535 1535 1534 1533 1532 1530
1438 1444 1449 1453 1458 1463 1468 1472 1476 1479 1482 1486 1491 1495 1500 1503 1506 1509 1512 1515 1518 1521 1523 1526 1528 1529 1531 1532 1534 1535 1536 1536 1535 1534 1534 1534 1533 1533 1532 1531 1530 1529 1527
1432 1437 1442 1447 1452 1457 1461 1465 1470 1473 1477 1482 1487 1490 1494 1498 1501 1504 1507 1510 1513 1516 1519 1521 1524 1525 1527 1528 1530 1531 1532 1532 1532 1532 1530 1530 1530 1530 1529 1528 1526 1525 1524
1425 1430 1435 1441 1445 1450 1455 1459 1463 1467 1472 1476 1480 1484 1488 1491 1495 1498 1502 1505 1508 1511 1514 1517 1519 1521 1523 1524 1526 1527 1528 1528 1528 1528 1527 1526 1525 1525 1525 1524 1523 1521 1520